Flag for Germany Weather past 2 weeks in Sankt Augustin, North Rhine-Westphalia, Germany

Now
63 °F

Passing clouds.


Feels Like: 63 °F
Forecast: 53 / 65 °F
Wind: 5 mph from Southwest

Location: Koeln / Bonn

Current Time: May 27, 2015 at 4:01:52 PM

Latest Report: May 27, 2015 at 3:20 PM


Visibility: N/A

Pressure: 30.21 "Hg

Humidity: 39%

Dew point: 37 °F

Location of Sankt AugustinLocation

Historic Weather in Sankt Augustin — Graph

°F

Sankt Augustin temperature yesterday

Maximum temperature yesterday: 57 °F (at 4:20 PM)
Minimum temperature yesterday: 46 °F (at 10:50 PM)
Average temperature yesterday: 53 °F

Past Weeks' High & Low Weather Summary

 TemperatureHumidityPressure
High73 °F (May 18, 4:20 PM)94% (May 15, 7:20 AM)30.33 "Hg (May 15, 7:20 AM)
Low39 °F (May 17, 4:50 AM)26% (May 14, 3:50 PM)29.65 "Hg (May 18, 7:20 PM)
Average55 °F65%30.07 "Hg
* Reported May 12 2:20 PM — May 27 2:50 PM, Sankt Augustin, Weather by CustomWeather, © 2015

Note: Actual official high and low records may vary slightly from our data, if they occured in-between our weather recording intervals... More about our weather records

Advertising

Sankt Augustin weather history for previous 24 hours

 ConditionsComfort  
Time TempWeatherWind HumidityBarometerVisibility
2:50 PM
Wed, May 27
59 °FSunny.3 mph42%30.21 "Hg10 mi
2:20 PM59 °FSunny.3 mph45%30.24 "Hg10 mi
1:50 PM57 °FPassing clouds.5 mph44%30.24 "HgN/A
1:20 PM59 °FScattered clouds.3 mph45%30.24 "HgN/A
12:50 PM57 °FBroken clouds.5 mph48%30.24 "HgN/A
12:20 PM57 °FBroken clouds.6 mph44%30.24 "HgN/A
11:50 AM57 °FBroken clouds.5 mph44%30.27 "HgN/A
11:20 AM55 °FBroken clouds.5 mph47%30.27 "HgN/A
10:50 AM55 °FBroken clouds.5 mph44%30.27 "HgN/A
10:20 AM54 °FBroken clouds.3 mph47%30.27 "HgN/A
9:50 AM54 °FBroken clouds.5 mph54%30.27 "HgN/A
9:20 AM54 °FPartly sunny.5 mph58%30.27 "HgN/A
8:50 AM52 °FPartly sunny.3 mph72%30.27 "HgN/A
8:20 AM50 °FPartly sunny.1 mph76%30.27 "HgN/A
7:50 AM50 °FPartly sunny.2 mph76%30.27 "HgN/A
7:20 AM48 °FPartly sunny.1 mph76%30.27 "HgN/A
6:50 AM46 °FPartly sunny.2 mph82%30.24 "HgN/A
6:20 AM46 °FPassing clouds.1 mph82%30.24 "HgN/A
5:50 AM45 °FPassing clouds.1 mph87%30.24 "HgN/A
5:20 AM46 °FPassing clouds.2 mph82%30.24 "HgN/A
4:50 AM46 °FOvercast.3 mph82%30.24 "HgN/A
4:20 AM45 °FOvercast.2 mph87%30.24 "HgN/A
3:50 AM45 °FOvercast.1 mph81%30.24 "HgN/A
3:20 AM45 °FOvercast.1 mph81%30.24 "HgN/A
2:50 AM45 °FOvercast.1 mph81%30.24 "HgN/A
2:20 AM43 °FOvercast.1 mph87%30.24 "HgN/A
1:50 AM43 °FClear.3 mph87%30.24 "Hg10 mi
1:20 AM41 °FClear.1 mph87%30.24 "Hg10 mi
12:50 AM43 °FClear.2 mph81%30.24 "Hg10 mi
12:20 AM43 °FClear.2 mph81%30.24 "Hg10 mi
11:20 PM
Tue, May 26
46 °FClear.5 mph71%30.21 "Hg10 mi
10:50 PM46 °FClear.7 mph71%30.21 "Hg10 mi
10:20 PM48 °FSunny.8 mph66%30.21 "Hg10 mi
9:50 PM52 °FScattered clouds.9 mph58%30.21 "HgN/A
9:20 PM54 °FPartly sunny.9 mph54%30.21 "HgN/A
8:50 PM55 °FPartly sunny.8 mph51%30.18 "HgN/A
8:20 PM55 °FPartly sunny.10 mph51%30.18 "HgN/A
7:50 PM57 °FPartly sunny.13 mph48%30.18 "HgN/A
7:20 PM57 °FPartly sunny.14 mph48%30.15 "HgN/A
6:50 PM57 °FPartly sunny.9 mph55%30.15 "HgN/A
6:20 PM55 °FBroken clouds.8 mph55%30.15 "HgN/A
5:50 PM57 °FBroken clouds.5 mph55%30.15 "HgN/A
5:20 PM55 °FBroken clouds.7 mph55%30.15 "HgN/A
4:50 PM55 °FBroken clouds.8 mph55%30.15 "HgN/A
4:20 PM57 °FPartly sunny.8 mph48%30.15 "HgN/A
Weather by CustomWeather, © 2015

See weather overviewHow to use our weather pages